Regional Weather Roundup
Issued by NWS Sterling, VA

Home | Current Version | Previous Version | Text Only | Print | Product List | Glossary Off
Versions: 1 2 3 4 5 6 7 8 9 10 11 12 13 14 15 16 17 18 19 20 21 22 23 24 25 26 27 28 29 30 31 32 33 34 35 36 37 38 39 40 41 42

000
ASUS41 KLWX 280610
RWRLWX

REGIONAL WEATHER ROUNDUP
NATIONAL WEATHER SERVICE BALTIMORE MD/WASHINGTON DC
100 AM EST SUN DEC 28 2014

Note: "FAIR" indicates few or no clouds below 12,000 feet
with no significant weather and/or obstructions to visibility.
 TC=TEMPERATURE CELSIUS

 * =Non NWS site. Station does not report precipitation (e.g. rain,
    snow, etc.), thunder, or fog.

DCZ001-MDZ009-015-VAZ040>042-051-053>054-280700-
WASHINGTON METRO

CITY           SKY/WX    TMP DP  RH WIND       PRES   REMARKS
WASHINGTON NAT CLOUDY    47  36  65 SW5       30.03F
DULLES         MOCLDY    45  36  70 S7        30.01F
ANDREWS AFB    CLOUDY    47  38  70 S9        30.02F
FT BELVOIR     MOCLDY    38  34  86 CALM      30.03F
QUANTICO       MOCLDY    45  38  76 SW8       30.04F
COLLEGE PARK*  MOCLDY    37  34  87 CALM      30.02F
LEESBURG*      MOCLDY    43  34  70 S6        30.01F
MANASSAS*      MOCLDY    37  36  93 CALM      30.02F
GAITHERSBURG*  MOCLDY    45  34  65 CALM      30.05F

$$

MDZ006>007-011-014-280700-
BALTIMORE METRO

CITY           SKY/WX    TMP DP  RH WIND       PRES   REMARKS
BWI AIRPORT    MOCLDY    35  32  88 CALM      30.01F
MD SCIENCE CTR   N/A     43  36  76 MISG      30.03F
MARTIN STATE   PTCLDY    36  36 100 CALM      30.04F FOG
ANNAPOLIS      PTCLDY    44  39  82 S5        30.03F
FORT MEADE*    MOCLDY    32  32 100 CALM      30.05F

$$

MDZ012-015-019>023-280700-
MARYLAND EASTERN SHORE

CITY           SKY/WX    TMP DP  RH WIND       PRES   REMARKS
OCEAN CITY     CLOUDY    47  42  83 SW7       30.09F
SALISBURY      CLOUDY    47  39  74 S5        30.08F
BAY BRIDGE AP*   N/A     46  37  71 S9        30.03F
CAMBRIDGE*     MOCLDY    45  39  81 S6        30.06F
EASTON*        MOCLDY    48  41  78 CALM      30.08F

$$

MDZ017>025-280700-
SOUTHERN MARYLAND

CITY           SKY/WX    TMP DP  RH WIND       PRES   REMARKS
PATUXENT RIVER CLOUDY    50  37  61 S6        30.06F
ST INIGOES     CLOUDY    50  38  63 S7        30.07F
LEONARDTOWN*   CLOUDY    50  36  57 SW5       30.08F

$$

MDZ003>005-280700-
NORTH CENTRAL MARYLAND

CITY           SKY/WX    TMP DP  RH WIND       PRES   REMARKS
FREDERICK*     PTCLDY    36  32  87 CALM      30.03F
HAGERSTOWN APT MOCLDY    46  29  51 CALM      29.97F
WESTMINSTER*   PTCLDY    46  36  66 S7        29.99F

$$

MDZ501>502-280700-
WESTERN MARYLAND

CITY           SKY/WX    TMP DP  RH WIND       PRES   REMARKS
OAKLAND*       NOT AVBL
CUMBERLAND*    MOCLDY    41  36  81 CALM      30.02F

$$

VAZ025>031-280700-
SHENANDOAH VALLEY

CITY           SKY/WX    TMP DP  RH WIND       PRES   REMARKS
WINCHESTER*    PTCLDY    50  23  34 SW3       29.97F
FRONT ROYAL*   FAIR      52  28  40 S9        29.96F
LURAY*         FAIR      50  32  50 S7        29.99F
NEW MARKET*    MOCLDY    51  29  42 SW7       30.00F
STAUNTON*      CLOUDY    48  30  49 S3        30.04F
WAYNESBORO*    MOCLDY    43  29  56 CALM      30.03F

$$

WVZ021-048>050-054>055-280700-
EASTERN WEST VIRGINIA PANHANDLE

CITY           SKY/WX    TMP DP  RH WIND       PRES   REMARKS
MARTINSBURG    MOCLDY    40  31  70 CALM      29.98F
PETERSBURG*    PTCLDY    40  34  80 CALM      29.99F

$$

VAZ036>039-050-280700-
CENTRAL FOOTHILLS

CITY           SKY/WX    TMP DP  RH WIND       PRES   REMARKS
CHARLOTTESVILL PTCLDY    47  35  63 S8        30.02F
CULPEPER*      PTCLDY    39  37  93 CALM      30.02F
ORANGE*        MOCLDY    48  37  66 S5        30.04F
GORDONSVILLE*  FAIR      45  37  74 SW5       30.03F
WARRENTON*     FAIR      44  40  85 CALM      30.00F

$$

VAZ055>057-280700-
NORTH AND CENTRAL PIEDMONT

CITY           SKY/WX    TMP DP  RH WIND       PRES   REMARKS
FREDERICKSBRG* MOCLDY    47  39  74 S5        30.03F
STAFFORD*      CLOUDY    42  36  79 CALM      30.07F

$$

NCZ024-NYZ072-PAZ021-071-VAZ022-071-280700-
OTHER REGIONAL OBSERVATIONS

CITY           SKY/WX    TMP DP  RH WIND       PRES   REMARKS
NEW YORK CITY  CLOUDY    50  35  56 W10G22    30.05F
PHILADELPHIA   MOCLDY    40  34  79 CALM      30.06F
PITTSBURGH     LGT RAIN  45  42  89 SW7       29.98F
ROANOKE        MOCLDY    50  35  56 CALM      30.09F
RICHMOND       CLOUDY    51  39  63 S8        30.09F
RALEIGH        CLOUDY    50  38  63 SW5       30.16F

$$

ANZ530>537-280700-
MARINE OBSERVATIONS

STATION/POSITION TIME  TEMP    WIND        PRES
                       AIR SEA DIR/SP/G
                 (UTC) (F)     (DEG/KT/KT) (MB)
THOMAS PT LIGHT  0600   46 43  170/ 13/ 14 1018.0F
BALT KEY BRIDGE  0600   42      60/  3/  3 1016.9F
COVE POINT       0600   45     180/  8/  9 1017.8F
LEWISETTA        0600   52 44  230/ 11/ 14 1018.1F
SOLOMONS ISLAND  0600      44                N/A
PINEY POINT      0600          220/  7/  8   N/A

$$



USA.gov is the U.S. government's official web portal to all federal, state and local government web resources and services.